Find Starlink 32768

NORAD ID: 62503 Int'l Des: 2025-003 Owner: SPXS Country: US Constellation: starlink operational
LEOCIRCULAR

Live-Position

3D-Globus wird geladen...

Über Starlink 32768

Beschreibung wird geladen...

Nächste Überflüge

Passes for default location (London). Set your location on the main map for personalized predictions.

Höhenverlauf

Loading altitude history...

Zweizeiliger Elementsatz

1 62503U 25003S 26123.86610919 .00030293 00000-0 11052-2 0 9998
2 62503 42.9997 337.0504 0000925 255.9244 104.1504 15.27597741 74999
Epoch: 3. Mai 2026 • Age: 23 hours

Aktueller Status

Höhe 491.6 km
Geschwindigkeit 7.62 km/s
Subsatellitenpunkt -33.05°S, 123.49°E
Startdatum 6. Jan. 2025
Alter 1.3 years
Typ internet

Technische Details

Klassifizierung Payload
Masse 730.00 kg
Trockenmasse 700.00 kg
Gesamtmasse 730.00 kg
Länge 0.30 m
Durchmesser 4.10 m
Spannweite 29.00 m
Form Box + pan
Hersteller SPXS
Bus-Typ Starlink V2M
Phasenstatus In Orbit
Besitzer/Staat SPXS/US

Most Searched